Regional Weather Roundup
Issued by NWS

Home | Current Version | Previous Version | Graphics & Text | Print | Product List | Glossary On
Versions: 1 2 3 4 5 6 7 8 9 10 11 12 13 14 15 16 17 18 19 20 21 22 23 24 25 26 27 28 29 30 31 32 33 34 35 36 37 38 39 40 41 42 43 44 45 46 47 48 49 50
000
ASUS43 KFSD 281702
RWRSD

WEATHER ROUNDUP FOR SOUTH DAKOTA
NATIONAL WEATHER SERVICE SIOUX FALLS SD
1200 PM CDT FRI APR 28 2017

NOTE: "FAIR" INDICATES FEW OR NO CLOUDS BELOW 12,000 FEET WITH NO
SIGNIFICANT WEATHER AND/OR OBSTRUCTIONS TO VISIBILITY.


SDZ001>005-009-010-012>017-281800-
NORTHWEST AND NORTH CENTRAL SOUTH DAKOTA

CITY           SKY/WX    TMP DP  RH WIND       PRES   REMARKS
BUFFALO          N/A     45  27  49 E12G21    29.91R
FAITH            N/A     44  30  57 NE12      29.97R
MOBRIDGE       SUNNY     51  20  29 NE14      29.96S
$$

SDZ012>016-024>037-041>051-057-063-072>074-281800-
SOUTHWEST AND SOUTH CENTRAL SOUTH DAKOTA

CITY           SKY/WX    TMP DP  RH WIND       PRES   REMARKS
RAPID CTY ARPT CLOUDY    42  29  59 E9        29.94R
PIERRE         CLOUDY    46  24  42 E16G22    29.97R
CUSTER         CLOUDY    28  23  81 NE15G35   29.85R WCI  16
ELLSWORTH AFB  CLOUDY    42  27  54 E15G24    29.94
PHILIP         PTSUNNY   44  33  65 E16       29.96R
PINE RIDGE     CLOUDY    39  33  79 E17G26    29.89R
SPEARFISH      PTSUNNY   37  28  70 E18       29.94R
WINNER         PTSUNNY   44  30  57 E17       29.93R
$$

SDZ004>011-016>023-039-040-281800-
NORTHEAST SOUTH DAKOTA

CITY           SKY/WX    TMP DP  RH WIND       PRES   REMARKS
ABERDEEN       SUNNY     48  22  35 NE24G30   29.98S
WATERTOWN      CLOUDY    44  26  49 NE16      29.93S
BROOKINGS      CLOUDY    42  27  55 NE14      29.95R
SISSETON         N/A     48  29  47 NE22      29.98R
$$

SDZ017-020-022-023-036>040-048>070-281800-
SOUTHEAST SOUTH DAKOTA

CITY           SKY/WX    TMP DP  RH WIND       PRES   REMARKS
SIOUX FALLS    CLOUDY    42  30  62 NE16      29.94S
HURON          CLOUDY    48  26  42 NE17      29.97R
CHAMBERLAIN    CLOUDY    46  26  45 N10G16    29.95S
MITCHELL       CLOUDY    47  26  44 NE17      29.96S
YANKTON        PTSUNNY   43  30  61 NE20      29.91S
$$

ABBREVIATIONS USED IN REMARKS
   TC - TEMPERATURE IN CELSIUS
  WCI - WIND CHILL INDEX
   HX - HEAT INDEX
  VSB - VISIBILITY





USA.gov is the U.S. government's official web portal to all federal, state and local government web resources and services.